Location: Observatory
(52.1446°N, 0.4624°W)
Time: 05:43:49
(UTC+00:00)

ISS - Pass Details

Date: 23 January 2019
Orbit: 403 x 411 km, 51.6° (Epoch: 22 February)

Event Time Altitude Azimuth Distance (km) Brightness Sun altitude
Rises 19:06:50 0° 220° (SW) 2,328 0.6 -23.3°
Reaches altitude 10° 19:09:06 10° 207° (SSW) 1,472 -0.7 -23.6°
Enters shadow 19:09:50 14° 199° (SSW) 1,233 -1.2 -23.7°
